Vertical_Velocity
-2 -2 -2 -2 -1 -1 -1 -1 -1 -1 -1 -1 -1 -1 -1 -1 -1 -1 -0 0 -0 -1 -1 0 0 0 1 1 1 -0 -0 -0 0 0 -0 0 0 1 1 0 0 -0 -0 -0 -0 -0 -1 -1 -1 -3 -4 -2 -0 0 1 3 3 2 0 -0 0 0 0 -1 -1 1 3 2 1
-1 -1 -1 -1 -1 -1 -1 -1 -0 -0 -1 -1 -1 -1 -1 -1 -1 -1 -1 0 -0 -1 -1 -0 0 1 1 0 1 0 -0 -1 -0 -0 -0 0 0 1 1 0 0 0 0 -0 -0 -0 -0 -1 -2 -3 -4 -3 -1 -0 0 3 4 2 -1 -1 1 1 0 -2 -1 2 4 2 1
-0 -1 -1 -1 -2 -2 -1 -1 -1 -0 -0 -1 -1 -1 -1 -1 -1 -1 -1 -1 -1 -1 -1 -1 -1 -0 0 -0 0 0 0 -0 -0 -0 -0 0 1 1 1 0 0 0 1 1 0 0 -0 -0 -2 -4 -4 -3 -1 -1 0 2 4 1 -1 -1 2 2 -0 -2 1 3 4 1 1
0 -0 -1 -2 -2 -2 -2 -2 -2 -1 -1 -1 -1 -1 -1 -1 -2 -2 -2 -1 -1 -1 -1 -2 -2 -1 -1 -0 -0 -0 0 -0 -0 -1 -1 -0 1 1 1 0 0 0 1 1 0 -0 -0 -0 -2 -4 -4 -3 -2 -1 -0 2 2 0 -2 -0 1 1 0 -1 2 3 3 1 2
-0 0 -0 -1 -2 -2 -3 -2 -2 -2 -2 -1 -1 -1 -1 -1 -2 -2 -3 -2 -1 -1 -1 -2 -2 -2 -1 -1 -1 -1 -0 0 -0 -1 -1 -1 -0 1 1 0 0 0 0 0 0 -0 -0 -1 -3 -4 -4 -2 -2 -1 0 3 1 -1 -2 -0 1 1 1 1 2 3 3 1 1
-1 -1 -0 -0 -1 -2 -3 -3 -3 -2 -2 -2 -2 -2 -1 -1 -2 -2 -3 -3 -2 -2 -1 -2 -2 -2 -2 -2 -2 -1 -1 -0 -0 -1 -1 -2 -1 -0 -0 -0 -0 -0 -0 -0 -0 -0 -1 -1 -3 -4 -4 -2 -3 -1 0 3 1 -1 -2 -2 -0 1 1 -0 2 4 3 1 1
-2 -1 -1 -1 -1 -1 -2 -2 -2 -2 -2 -2 -2 -1 -1 -1 -1 -2 -2 -2 -2 -2 -1 -2 -2 -2 -3 -2 -2 -2 -2 -1 -1 -1 -1 -1 -1 -1 -1 -1 -1 -1 -1 -1 -1 -1 -1 -1 -3 -4 -4 -2 -3 -2 0 3 0 -2 -3 -3 -1 1 1 -1 2 3 3 1 2
-1 -1 -1 -1 -1 -1 -1 -2 -2 -2 -2 -2 -1 -1 -1 -1 -1 -1 -2 -2 -1 -1 -1 -1 -1 -2 -2 -2 -2 -2 -2 -1 -1 -1 -1 -1 -1 -1 -1 -1 -1 -1 -1 -0 -1 -2 -2 -2 -4 -4 -3 -2 -3 -2 -0 2 -0 -2 -3 -3 -1 1 1 -0 1 2 2 1 2
-2 -2 -2 -2 -2 -2 -2 -2 -2 -2 -2 -2 -2 -1 -1 -1 -1 -1 -1 -1 -1 -0 -0 -0 -0 -0 -1 -1 -1 -1 -1 -1 -2 -1 -1 -0 -1 -1 -1 -0 -1 -1 -0 1 -0 -1 -2 -3 -4 -4 -3 -1 -2 -2 -0 1 -1 -3 -3 -1 -1 -0 0 1 1 2 2 2 1
-1 -1 -2 -3 -3 -3 -2 -3 -2 -2 -2 -2 -2 -1 -1 -1 -1 -1 -0 -0 0 1 1 1 1 0 -0 -0 -0 0 -0 -1 -1 -1 -1 -0 0 -0 -0 -0 -0 -0 0 1 1 -0 -2 -2 -3 -3 -2 -1 -2 -2 -1 1 -1 -3 -4 -1 -0 -0 -0 1 1 1 1 2 1
-1 -1 -1 -2 -3 -3 -3 -3 -2 -2 -2 -2 -2 -1 -1 -1 -1 -1 -1 -0 0 1 2 3 2 1 0 1 1 1 1 0 -0 -1 -0 -0 1 1 1 1 1 1 1 2 2 1 -1 -2 -2 -2 -2 -0 -1 -1 -1 1 -0 -2 -4 -2 -0 -0 -1 0 3 2 1 0 1
-1 -1 -1 -1 -3 -3 -3 -2 -2 -1 -1 -1 -1 -1 -1 -1 -1 -1 -1 -1 -0 0 2 4 2 1 0 1 1 1 1 1 0 -0 -0 -0 1 1 2 1 2 2 2 3 3 2 0 -1 -1 -1 -1 -0 1 -0 -1 0 0 -1 -3 -2 -0 -1 -1 -0 3 3 1 -0 -1
-0 -1 -1 -1 -1 -2 -2 -2 -1 -1 -1 -1 -1 -1 -1 -1 -1 -1 -1 -2 -1 -0 1 3 3 2 1 1 1 1 1 1 1 1 0 0 1 1 1 2 2 2 2 3 4 3 1 -0 0 -0 -1 -0 1 1 1 1 -0 -1 -1 -1 -0 -1 -1 0 3 3 2 -1 -2
-0 -0 -1 -1 -1 -1 -1 -1 -1 -0 -0 -0 -0 -0 -0 -1 -0 -0 -1 -2 -1 -1 0 1 2 2 2 1 1 1 1 1 1 1 1 1 1 1 1 1 2 3 3 3 4 3 2 1 1 0 -0 -1 0 2 2 1 0 -0 -1 -0 -0 -0 0 1 3 3 2 -1 -2
-1 -0 -0 -1 -0 -0 -0 -1 -0 -0 -0 -0 0 0 0 -0 0 1 0 -1 -1 -1 -0 0 1 2 2 2 0 0 1 1 1 1 1 1 1 1 1 1 2 2 3 2 3 3 3 2 1 1 -0 -2 -1 1 2 2 1 -0 -0 -0 0 1 1 2 3 3 2 -0 -1
-1 -1 -1 -1 -1 -1 -0 -0 -0 -0 -0 -0 0 1 1 0 1 1 1 -0 -0 -0 0 -0 0 1 2 2 2 1 0 1 1 1 -0 0 1 1 1 1 1 2 2 1 1 2 2 2 2 1 -1 -2 -2 -0 1 2 1 0 -0 -0 0 1 2 3 4 3 2 1 0
-1 -1 -0 -1 -1 -1 -1 -0 -0 -0 -0 -0 0 1 1 0 1 1 2 1 0 -0 -0 0 1 0 0 1 3 3 1 -0 1 1 0 -0 0 1 0 0 1 1 1 0 -0 -0 1 2 1 0 -1 -3 -3 -2 -0 1 1 0 -0 -0 0 1 2 3 4 4 2 2 1
-0 -0 -0 -1 -1 -1 -1 -1 -0 -0 -0 -0 -0 0 1 1 0 0 1 2 1 -0 -1 -1 1 1 0 -0 2 3 3 -0 -0 0 1 1 1 1 1 0 0 1 1 -0 -1 -1 -0 0 1 -0 -1 -3 -4 -3 -2 -1 -1 -0 0 0 0 1 2 3 4 4 3 1 1
-1 -1 -1 -1 -1 -1 -1 -1 -1 -1 -0 -0 -0 -0 0 1 0 -0 -0 1 2 1 -1 -2 -1 0 1 0 1 2 2 2 -1 -0 1 2 1 1 1 1 0 0 0 -1 -1 -1 -1 -1 -0 -0 -1 -3 -4 -4 -3 -2 -2 -1 -0 1 1 1 2 4 4 4 4 2 2
-2 -2 -1 -1 -1 -1 -1 -1 -1 -1 -1 -0 -0 -0 -0 1 0 -0 -1 -0 1 1 -1 -3 -2 -1 -0 0 -0 -0 1 2 0 -1 -0 2 1 1 1 1 -0 -1 -0 -0 -1 -1 -1 -1 -1 -1 -1 -2 -4 -4 -4 -3 -3 -2 -2 -0 0 1 3 4 4 4 3 3 2
-2 -2 -2 -2 -2 -2 -1 -1 -1 -1 -1 -0 -0 -0 -0 0 0 0 -0 -0 -0 -0 -0 -1 -2 -2 -1 -1 -1 -1 -1 1 1 -1 -2 0 0 0 0 1 -1 -2 -1 -0 -1 -1 -0 -0 -1 -1 -2 -2 -3 -3 -3 -3 -3 -3 -2 -1 -0 1 3 4 4 4 3 3 3
-2 -2 -2 -2 -2 -2 -2 -1 -1 -1 -1 -1 -0 -0 -0 -0 0 0 0 0 0 -0 -0 -0 -0 -1 -1 -1 -1 -2 -2 -0 0 -1 -1 -1 -1 -1 0 1 -2 -3 -2 0 -0 -1 -1 -1 -1 -1 -1 -2 -3 -2 -1 -2 -3 -3 -2 -2 -0 1 2 3 3 3 3 4 4
-2 -2 -2 -2 -2 -2 -2 -2 -1 -1 -1 -1 -1 -0 -1 -1 -0 -0 0 0 0 0 0 0 0 -0 -1 -1 -1 -2 -3 -3 -1 -0 0 1 -1 -1 -0 1 -1 -3 -3 -0 1 0 -1 -2 -2 -1 -0 -0 -2 -2 -0 -0 -2 -2 -2 -2 -1 0 1 2 3 3 3 3 4
-2 -2 -2 -2 -2 -2 -2 -2 -2 -2 -2 -2 -1 -1 -1 -1 -1 -1 -1 -1 -0 0 0 0 1 0 -0 -1 -1 -1 -2 -4 -3 -2 -0 2 1 -0 -1 0 0 -1 -1 0 2 2 1 -1 -3 -3 -2 1 -0 -0 1 2 1 -0 -1 -1 -1 -0 1 2 3 3 3 3 3
-3 -2 -2 -2 -2 -2 -2 -2 -2 -3 -3 -2 -2 -2 -2 -3 -3 -3 -3 -3 -2 -1 -0 -1 -1 -0 -0 -2 -2 -1 -0 -1 -3 -3 -2 -1 1 1 1 0 0 1 1 3 4 4 3 1 -2 -4 -4 -3 -1 -1 0 2 3 3 2 1 1 0 0 1 3 4 4 4 3
-3 -3 -2 -2 -3 -3 -2 -2 -3 -3 -3 -3 -3 -3 -3 -3 -3 -3 -4 -4 -3 -2 -1 -1 -2 -1 -1 -2 -2 -2 -1 1 -0 -1 -3 -4 -2 -0 1 2 1 2 3 5 5 5 4 2 1 -1 -2 -4 -4 -4 -4 -4 -0 2 3 3 3 3 2 2 4 5 6 5 4
-3 -3 -3 -3 -3 -2 -2 -2 -2 -3 -3 -3 -4 -4 -3 -3 -3 -3 -3 -3 -3 -2 -1 -1 -1 -1 -2 -2 -2 -2 -1 0 1 0 -1 -2 -3 -3 -1 1 3 4 4 6 5 5 4 3 3 3 2 -0 -3 -5 -6 -7 -6 -3 -1 0 2 4 4 4 5 6 6 6 6
-3 -3 -3 -4 -3 -2 -2 -2 -2 -2 -3 -3 -3 -3 -3 -3 -2 -2 -2 -1 -1 -1 -1 -1 -0 -0 -1 -3 -2 -1 -0 -0 1 1 -0 -1 -1 -2 -2 -1 2 4 5 6 5 4 4 3 4 4 5 4 -1 -4 -6 -7 -7 -6 -5 -4 -2 1 3 4 5 6 6 6 6
-2 -3 -3 -3 -3 -2 -2 -1 -2 -2 -2 -3 -3 -3 -2 -2 -1 -0 -0 -1 -1 -1 -1 -2 -1 -0 -0 -1 -2 -1 -0 1 1 1 0 -0 -1 -1 -1 -0 1 3 5 7 5 4 3 3 3 4 5 5 2 -2 -5 -6 -6 -5 -5 -6 -5 -3 -0 2 4 5 5 5 5
-2 -3 -3 -3 -3 -3 -2 -1 -1 -1 -2 -2 -2 -2 -1 -1 -0 0 1 0 -0 0 0 -1 -2 -2 -0 1 0 -1 -0 1 3 3 1 -0 -1 -1 -0 1 1 3 5 7 5 4 3 3 3 4 4 4 3 -0 -4 -6 -4 -4 -4 -4 -4 -3 -2 -1 1 2 4 5 5
-1 -2 -3 -4 -3 -2 -2 -1 -0 -0 -0 -0 -1 -1 -0 -0 -0 0 0 0 -1 -1 0 1 -1 -2 -1 2 2 1 -0 0 2 3 3 1 -2 -2 -1 1 2 4 5 7 6 4 3 3 3 3 3 4 3 0 -3 -4 -3 -3 -2 -1 -1 -1 -1 -2 -2 -0 2 4 4
-1 -2 -2 -3 -3 -2 -1 -0 0 0 1 1 0 -0 -0 -0 1 1 1 -0 -2 -3 -3 -1 -0 -1 -2 0 1 1 1 1 1 2 2 2 -2 -3 -3 -0 2 4 6 7 4 3 2 2 2 2 3 3 2 -0 -2 -3 -2 -2 -1 0 1 1 1 -1 -2 -1 0 3 4
-1 -1 -1 -2 -2 -1 -0 1 1 0 -0 -0 0 0 -1 -3 -2 -1 -0 0 -1 -3 -4 -3 -2 -2 -2 -2 -2 -2 -1 1 1 0 1 2 -1 -3 -4 -2 1 4 5 5 3 1 1 1 1 2 2 2 1 -0 -2 -1 -1 -1 -1 0 2 3 3 2 0 -0 -0 1 2
-1 -1 -1 -0 -1 -1 -1 0 0 -0 -1 -2 -2 -1 -0 -2 -4 -4 -3 -0 -1 -2 -2 -2 -1 -1 -2 -1 -2 -3 -3 -2 -0 0 1 1 0 -1 -3 -3 1 4 5 4 1 0 0 0 1 1 1 1 0 -1 -1 -0 -0 -0 0 0 1 2 4 4 3 2 1 1 1
-0 -1 -2 -1 -1 -1 -2 -1 -1 -1 -2 -3 -4 -3 -2 -1 -1 -2 -3 -3 -2 -2 -2 -1 0 1 -0 -1 -0 -1 -3 -4 -2 -0 1 1 1 -1 -2 -2 1 4 6 4 1 -0 -0 -0 1 1 1 1 -0 -1 -0 0 0 0 1 1 2 3 4 4 4 3 2 2 1
-0 -1 -3 -3 -2 -2 -3 -3 -3 -3 -3 -3 -4 -5 -5 -3 -1 -0 -0 -2 -4 -4 -2 -1 -0 1 1 0 -0 -0 -0 -1 -2 -1 0 2 2 -1 -3 -3 1 4 6 5 1 -0 -0 0 1 1 1 1 -0 -0 -0 0 0 0 1 2 3 4 4 5 4 3 3 3 2
-0 -1 -3 -4 -4 -4 -3 -3 -4 -4 -4 -4 -3 -4 -5 -6 -4 -1 0 0 -4 -6 -5 -2 -0 0 1 1 -0 0 1 3 1 -0 -1 1 2 -0 -2 -4 -0 3 6 5 2 0 0 1 1 2 1 0 -0 -0 0 0 -0 0 1 2 3 4 4 5 4 3 3 3 3
-0 -1 -2 -4 -5 -4 -4 -3 -4 -4 -5 -5 -4 -3 -3 -4 -4 -3 -0 1 -3 -6 -7 -5 -2 -0 1 1 -1 -0 1 5 4 2 -0 -1 1 0 -2 -4 -2 2 4 4 2 0 0 1 1 2 2 1 0 0 1 -0 -1 -0 1 1 2 3 4 4 3 3 3 3 4
-1 -1 -1 -3 -4 -4 -4 -3 -3 -3 -4 -6 -6 -4 -3 -3 -4 -3 -1 1 -1 -4 -6 -6 -4 -2 -0 0 -1 -2 0 4 6 4 1 -1 -1 -0 -1 -3 -3 -0 2 3 1 0 -0 0 1 2 2 2 2 1 0 -1 -1 -1 -0 1 1 2 2 3 3 3 2 3 4
-1 -1 -1 -1 -2 -3 -4 -4 -2 -1 -2 -4 -6 -6 -4 -3 -3 -2 -1 -0 -1 -3 -5 -6 -5 -3 -1 -0 -2 -3 -2 1 5 5 3 -0 -1 -1 -1 -2 -3 -2 0 2 1 0 -0 -0 1 2 3 4 2 1 -0 -2 -2 -2 -1 1 1 1 1 2 3 3 3 3 4
-1 -1 -1 -0 0 -1 -3 -5 -4 -2 -1 -2 -4 -4 -4 -3 -3 -2 -2 -1 -1 -2 -3 -5 -5 -3 -1 -0 -2 -3 -3 -2 2 4 4 1 -0 -1 -0 -1 -3 -2 -1 1 1 1 -0 -0 1 3 4 4 2 0 -1 -2 -3 -3 -1 0 1 1 0 0 2 3 3 3 3
Height
3086 3084 3083 3082 3080 3079 3078 3077 3075 3074 3073 3072 3071 3069 3068 3067 3066 3065 3063 3062 3061 3060 3059 3058 3057 3056 3055 3053 3052 3051 3050 3048 3047 3046 3045 3043 3042 3041 3040 3039 3037 3036 3035 3034 3032 3031 3030 3028 3027 3025 3023 3022 3021 3019 3019 3018 3017 3016 3015 3014 3013 3012 3010 3009 3008 3007 3007 3006 3004
3083 3082 3081 3079 3077 3076 3075 3074 3072 3071 3070 3069 3067 3066 3065 3064 3062 3061 3060 3059 3057 3056 3055 3054 3053 3052 3051 3050 3048 3047 3046 3044 3043 3042 3041 3039 3038 3037 3036 3035 3033 3032 3031 3030 3028 3027 3026 3024 3022 3021 3019 3017 3016 3015 3015 3014 3013 3012 3011 3010 3009 3007 3006 3005 3004 3003 3003 3002 3000
3081 3080 3078 3076 3075 3073 3072 3071 3069 3068 3067 3066 3064 3063 3062 3060 3059 3058 3057 3056 3054 3053 3052 3051 3049 3048 3047 3046 3045 3043 3042 3041 3040 3038 3037 3036 3035 3033 3032 3031 3030 3028 3027 3026 3025 3023 3022 3021 3019 3017 3015 3013 3012 3012 3011 3010 3009 3008 3007 3006 3005 3003 3002 3000 3000 2999 2998 2997 2996
3079 3077 3075 3074 3072 3070 3069 3067 3066 3065 3064 3062 3061 3060 3059 3057 3056 3055 3053 3052 3051 3050 3048 3047 3046 3045 3044 3042 3041 3040 3039 3037 3036 3035 3033 3032 3031 3030 3029 3027 3026 3025 3024 3022 3021 3020 3018 3017 3015 3013 3011 3010 3009 3008 3007 3006 3005 3004 3002 3002 3000 2999 2998 2997 2996 2995 2994 2993 2992
3076 3075 3073 3071 3069 3067 3066 3064 3063 3062 3061 3059 3058 3057 3056 3054 3052 3051 3050 3049 3048 3047 3045 3044 3042 3041 3040 3039 3038 3037 3036 3034 3033 3031 3030 3029 3027 3026 3025 3024 3022 3021 3020 3019 3017 3016 3014 3013 3011 3009 3007 3006 3005 3004 3003 3002 3001 3000 2998 2997 2996 2995 2993 2992 2992 2991 2990 2988 2987
3073 3072 3070 3068 3067 3065 3063 3061 3060 3058 3057 3056 3055 3053 3052 3051 3049 3048 3047 3045 3044 3043 3042 3040 3039 3038 3037 3035 3034 3033 3032 3031 3029 3028 3027 3025 3024 3023 3022 3020 3019 3017 3016 3015 3013 3012 3010 3009 3007 3005 3003 3002 3001 3000 2999 2999 2997 2996 2994 2993 2992 2991 2989 2988 2987 2987 2986 2984 2983
3070 3069 3067 3066 3064 3062 3060 3058 3057 3055 3054 3052 3051 3050 3049 3047 3046 3044 3043 3042 3041 3039 3038 3037 3036 3034 3033 3032 3030 3029 3028 3027 3026 3024 3023 3021 3020 3019 3018 3017 3015 3014 3013 3011 3010 3008 3007 3005 3003 3001 2999 2998 2997 2996 2995 2995 2993 2991 2990 2988 2987 2987 2985 2984 2983 2982 2981 2980 2979
3067 3066 3064 3062 3061 3059 3057 3055 3054 3052 3051 3049 3048 3047 3045 3044 3042 3041 3040 3038 3037 3036 3034 3033 3032 3030 3029 3027 3026 3025 3024 3023 3022 3020 3019 3018 3016 3015 3014 3013 3012 3011 3009 3008 3007 3005 3003 3001 2999 2997 2996 2995 2993 2992 2992 2991 2989 2987 2986 2984 2983 2982 2981 2980 2979 2978 2977 2976 2975
3065 3063 3061 3059 3057 3056 3054 3052 3051 3049 3047 3046 3045 3043 3042 3041 3039 3038 3036 3035 3033 3032 3031 3030 3028 3027 3025 3024 3022 3021 3020 3019 3017 3016 3015 3014 3012 3012 3010 3009 3008 3007 3006 3005 3003 3002 3000 2997 2996 2994 2993 2992 2990 2989 2987 2987 2985 2983 2981 2980 2979 2978 2977 2975 2974 2973 2972 2971 2970
3062 3060 3058 3056 3054 3052 3051 3049 3047 3046 3044 3043 3042 3040 3039 3037 3036 3034 3033 3031 3030 3029 3027 3026 3025 3023 3022 3020 3019 3017 3016 3015 3013 3012 3011 3010 3009 3008 3007 3006 3005 3003 3002 3001 3000 2998 2996 2994 2992 2991 2989 2988 2987 2985 2984 2982 2981 2979 2977 2976 2975 2974 2972 2971 2970 2969 2967 2966 2966
3059 3057 3055 3053 3051 3049 3048 3046 3044 3043 3041 3040 3038 3037 3035 3034 3032 3031 3029 3028 3027 3025 3024 3023 3021 3020 3018 3017 3015 3014 3012 3011 3010 3008 3007 3006 3005 3004 3003 3002 3001 3000 2998 2997 2996 2994 2992 2990 2988 2987 2986 2984 2983 2981 2980 2978 2977 2975 2973 2972 2971 2969 2968 2967 2966 2965 2963 2962 2961
3055 3054 3052 3050 3048 3046 3044 3043 3041 3040 3038 3036 3035 3033 3032 3031 3029 3027 3026 3025 3023 3022 3021 3020 3018 3016 3015 3013 3012 3011 3009 3008 3006 3005 3003 3002 3001 3000 2999 2998 2997 2996 2995 2993 2992 2990 2988 2986 2984 2983 2982 2980 2979 2977 2976 2974 2973 2971 2969 2967 2967 2965 2964 2962 2962 2960 2959 2957 2956
3052 3050 3048 3047 3045 3043 3041 3040 3038 3037 3035 3033 3032 3030 3029 3027 3026 3024 3023 3021 3020 3019 3017 3016 3015 3013 3012 3010 3008 3007 3006 3004 3003 3001 3000 2998 2997 2996 2995 2994 2993 2992 2991 2989 2988 2986 2984 2982 2981 2979 2977 2976 2975 2973 2972 2970 2968 2967 2965 2963 2962 2961 2959 2958 2957 2956 2954 2952 2951
3048 3047 3045 3043 3041 3040 3038 3037 3035 3034 3032 3030 3029 3027 3026 3024 3023 3021 3020 3018 3017 3015 3014 3012 3011 3010 3008 3007 3005 3003 3002 3001 2999 2997 2996 2995 2993 2992 2991 2990 2989 2988 2987 2985 2984 2982 2980 2978 2977 2975 2973 2972 2970 2969 2967 2966 2964 2962 2961 2959 2958 2956 2955 2954 2953 2952 2950 2948 2947
3045 3043 3042 3040 3038 3037 3035 3033 3032 3031 3029 3027 3026 3024 3023 3021 3020 3018 3017 3015 3013 3012 3010 3009 3007 3006 3005 3003 3002 3000 2998 2997 2996 2994 2992 2991 2990 2988 2987 2986 2985 2984 2982 2981 2979 2978 2976 2974 2972 2971 2969 2967 2966 2965 2963 2962 2959 2957 2956 2955 2953 2952 2951 2949 2948 2947 2945 2944 2942
3042 3040 3038 3037 3035 3033 3032 3030 3029 3027 3026 3024 3023 3022 3020 3018 3017 3015 3013 3012 3010 3008 3007 3005 3003 3002 3001 2999 2998 2997 2995 2993 2992 2990 2988 2987 2986 2984 2983 2982 2981 2979 2978 2977 2975 2973 2972 2970 2968 2967 2965 2963 2962 2960 2959 2957 2955 2953 2952 2950 2948 2947 2946 2945 2943 2942 2941 2939 2938
3039 3037 3036 3034 3032 3030 3029 3027 3026 3024 3023 3021 3020 3018 3017 3015 3013 3012 3010 3008 3007 3005 3003 3002 3000 2998 2997 2996 2994 2993 2992 2989 2988 2986 2985 2983 2982 2980 2979 2978 2977 2975 2974 2972 2970 2969 2967 2966 2964 2962 2961 2959 2957 2955 2954 2952 2951 2949 2947 2946 2944 2942 2941 2940 2939 2937 2936 2934 2933
3036 3034 3032 3031 3029 3027 3026 3024 3022 3021 3019 3018 3016 3015 3013 3012 3010 3008 3007 3005 3003 3002 2999 2998 2997 2995 2994 2992 2991 2989 2988 2986 2984 2982 2981 2979 2977 2976 2975 2973 2972 2971 2969 2967 2966 2964 2963 2962 2960 2958 2956 2954 2952 2951 2949 2948 2946 2944 2943 2941 2940 2938 2937 2935 2934 2932 2931 2929 2928
3033 3031 3029 3028 3026 3024 3023 3021 3020 3018 3016 3015 3013 3012 3010 3008 3007 3005 3003 3002 3000 2998 2996 2994 2993 2991 2990 2988 2987 2985 2984 2982 2980 2978 2977 2975 2974 2972 2971 2969 2968 2966 2965 2963 2961 2960 2958 2957 2955 2954 2952 2950 2948 2946 2945 2943 2941 2940 2938 2937 2935 2934 2932 2931 2929 2927 2926 2925 2923
3030 3028 3026 3025 3023 3021 3020 3018 3017 3015 3013 3012 3010 3008 3007 3005 3003 3002 3000 2998 2997 2995 2993 2991 2989 2987 2986 2985 2983 2981 2980 2978 2976 2974 2972 2971 2970 2968 2967 2965 2963 2962 2960 2958 2957 2955 2953 2952 2950 2948 2947 2945 2943 2942 2940 2938 2937 2935 2933 2932 2930 2929 2927 2926 2924 2923 2921 2920 2919
3026 3025 3023 3021 3020 3018 3017 3015 3013 3012 3010 3008 3007 3005 3003 3002 3000 2998 2997 2995 2993 2991 2989 2987 2986 2984 2982 2981 2979 2977 2975 2974 2972 2971 2969 2967 2966 2964 2962 2961 2959 2957 2955 2954 2952 2950 2948 2947 2945 2943 2942 2940 2938 2937 2935 2933 2932 2930 2928 2927 2926 2924 2923 2921 2920 2918 2917 2915 2914
3023 3021 3020 3018 3016 3015 3013 3012 3010 3008 3007 3005 3003 3002 3000 2998 2997 2995 2993 2992 2990 2988 2986 2984 2982 2981 2978 2977 2975 2973 2971 2970 2968 2967 2965 2963 2961 2959 2958 2956 2954 2952 2950 2948 2947 2945 2943 2941 2940 2938 2937 2935 2933 2932 2930 2929 2927 2925 2923 2922 2921 2919 2918 2916 2915 2913 2912 2911 2910
3020 3018 3016 3015 3013 3011 3010 3008 3006 3005 3003 3002 3000 2998 2997 2995 2993 2992 2990 2988 2986 2984 2982 2981 2979 2977 2975 2972 2971 2969 2967 2965 2963 2962 2960 2959 2957 2955 2953 2951 2949 2947 2945 2943 2942 2940 2938 2936 2934 2933 2931 2930 2928 2927 2925 2924 2922 2920 2918 2917 2915 2914 2912 2911 2910 2909 2907 2906 2905
3016 3015 3013 3011 3009 3008 3006 3005 3003 3001 3000 2998 2997 2995 2993 2991 2990 2988 2986 2984 2983 2981 2979 2977 2975 2972 2971 2968 2966 2964 2962 2960 2958 2957 2955 2953 2952 2950 2948 2946 2944 2942 2940 2939 2937 2935 2933 2931 2929 2927 2926 2924 2923 2922 2920 2919 2917 2915 2913 2912 2910 2909 2907 2906 2905 2904 2902 2901 2900
3013 3011 3009 3008 3006 3004 3003 3001 3000 2998 2997 2995 2993 2992 2990 2988 2986 2984 2982 2981 2979 2977 2975 2973 2970 2968 2966 2964 2962 2960 2957 2956 2953 2951 2949 2948 2946 2944 2942 2941 2938 2937 2935 2934 2932 2930 2928 2926 2923 2922 2920 2918 2917 2916 2915 2913 2912 2910 2909 2907 2905 2904 2902 2901 2900 2899 2898 2897 2896
3010 3008 3006 3005 3003 3001 3000 2998 2997 2995 2993 2992 2990 2988 2987 2985 2983 2981 2979 2977 2975 2973 2971 2968 2966 2964 2962 2959 2957 2955 2953 2951 2949 2947 2944 2942 2941 2939 2937 2935 2933 2932 2930 2928 2927 2925 2923 2921 2919 2917 2915 2913 2911 2910 2908 2907 2906 2905 2903 2902 2900 2899 2897 2896 2895 2894 2893 2892 2891
3007 3005 3003 3002 3000 2998 2997 2995 2994 2992 2990 2988 2987 2985 2983 2982 2979 2977 2975 2973 2971 2968 2966 2964 2962 2959 2957 2954 2952 2950 2948 2946 2944 2942 2939 2937 2935 2933 2932 2930 2928 2927 2925 2923 2922 2920 2918 2916 2914 2912 2910 2908 2906 2904 2903 2902 2900 2899 2897 2896 2895 2893 2892 2892 2891 2890 2889 2888 2887
3004 3002 3000 2998 2997 2995 2994 2992 2991 2989 2987 2985 2983 2982 2980 2978 2976 2973 2971 2969 2966 2964 2961 2959 2957 2954 2952 2950 2947 2946 2943 2941 2939 2937 2934 2932 2930 2928 2927 2925 2923 2922 2920 2918 2916 2914 2912 2911 2909 2907 2905 2903 2901 2899 2898 2897 2895 2893 2892 2890 2888 2887 2887 2886 2886 2885 2884 2883 2882
3001 2999 2997 2995 2994 2992 2991 2989 2987 2986 2983 2982 2980 2978 2976 2974 2972 2969 2967 2964 2962 2959 2956 2954 2952 2949 2947 2945 2943 2941 2938 2936 2934 2932 2930 2927 2925 2923 2922 2920 2918 2916 2915 2913 2911 2909 2907 2906 2904 2902 2901 2899 2897 2895 2893 2892 2890 2889 2887 2885 2883 2882 2881 2880 2880 2880 2879 2879 2878
2998 2996 2994 2992 2991 2989 2987 2986 2984 2982 2980 2978 2976 2974 2972 2969 2967 2965 2962 2959 2957 2954 2952 2949 2947 2944 2942 2940 2938 2936 2933 2931 2929 2927 2924 2922 2920 2918 2917 2915 2913 2911 2910 2908 2906 2904 2902 2901 2899 2897 2896 2894 2892 2890 2889 2887 2886 2884 2882 2881 2879 2877 2876 2875 2875 2875 2874 2874 2873
2995 2993 2991 2989 2987 2986 2984 2982 2981 2978 2977 2974 2972 2970 2967 2965 2962 2960 2957 2954 2951 2949 2947 2944 2942 2939 2937 2935 2933 2931 2928 2926 2924 2922 2919 2917 2915 2913 2911 2910 2908 2906 2905 2903 2901 2899 2897 2896 2894 2893 2891 2890 2888 2886 2884 2882 2881 2880 2878 2877 2875 2874 2873 2871 2870 2870 2869 2869 2868
2992 2990 2988 2986 2984 2982 2981 2979 2977 2975 2972 2970 2968 2965 2963 2960 2957 2955 2952 2949 2947 2944 2941 2939 2937 2935 2932 2930 2928 2926 2923 2921 2919 2917 2914 2912 2910 2908 2906 2905 2903 2902 2900 2898 2896 2894 2893 2891 2890 2888 2887 2885 2883 2882 2880 2878 2877 2875 2874 2873 2872 2871 2870 2868 2867 2866 2865 2864 2864
2988 2987 2985 2983 2981 2979 2977 2975 2973 2971 2968 2966 2963 2961 2958 2956 2953 2950 2947 2945 2942 2939 2937 2934 2932 2930 2927 2925 2923 2921 2918 2916 2914 2912 2910 2907 2905 2903 2901 2900 2898 2897 2895 2893 2892 2890 2888 2887 2885 2884 2882 2881 2879 2877 2876 2874 2873 2872 2870 2869 2868 2867 2867 2865 2864 2862 2862 2860 2859
2985 2983 2981 2979 2977 2976 2973 2971 2969 2967 2964 2962 2959 2957 2954 2951 2948 2945 2943 2940 2937 2935 2932 2930 2928 2925 2923 2920 2918 2916 2913 2911 2909 2907 2905 2903 2901 2898 2897 2895 2894 2893 2891 2889 2887 2886 2884 2882 2881 2879 2878 2877 2875 2873 2872 2870 2869 2868 2867 2866 2865 2864 2863 2862 2861 2860 2858 2857 2856
2982 2980 2977 2976 2974 2972 2970 2967 2965 2963 2960 2958 2955 2952 2950 2947 2944 2941 2938 2936 2933 2931 2928 2926 2924 2921 2919 2916 2914 2912 2909 2907 2904 2902 2901 2898 2896 2894 2892 2891 2890 2889 2887 2885 2883 2882 2880 2878 2877 2876 2874 2873 2871 2869 2868 2867 2866 2865 2864 2863 2862 2861 2860 2859 2858 2857 2855 2854 2852
2978 2976 2974 2972 2970 2968 2966 2963 2961 2959 2956 2954 2951 2948 2946 2943 2940 2937 2934 2932 2929 2926 2924 2922 2920 2917 2915 2912 2910 2907 2905 2902 2900 2898 2896 2894 2892 2890 2888 2887 2886 2885 2883 2882 2880 2878 2877 2875 2873 2872 2871 2869 2867 2866 2865 2864 2862 2862 2861 2860 2859 2858 2857 2856 2855 2854 2852 2851 2850
2975 2972 2970 2968 2966 2964 2962 2960 2957 2955 2952 2950 2947 2944 2942 2939 2936 2933 2930 2927 2925 2922 2920 2918 2916 2913 2911 2908 2905 2903 2901 2898 2896 2894 2892 2890 2888 2886 2884 2883 2882 2881 2880 2878 2876 2875 2873 2872 2870 2869 2867 2866 2864 2863 2862 2861 2860 2859 2858 2857 2856 2855 2854 2853 2852 2851 2849 2848 2847
2971 2969 2967 2964 2962 2960 2958 2956 2953 2951 2948 2946 2943 2940 2937 2935 2932 2929 2926 2923 2920 2917 2915 2913 2911 2909 2907 2904 2901 2899 2897 2895 2892 2890 2888 2886 2884 2882 2881 2879 2878 2877 2876 2875 2873 2872 2870 2869 2867 2866 2865 2863 2862 2860 2859 2858 2857 2856 2855 2854 2853 2852 2851 2850 2849 2847 2846 2845 2844
2967 2965 2963 2960 2958 2956 2953 2951 2949 2947 2944 2942 2939 2936 2933 2931 2928 2925 2922 2920 2917 2914 2911 2909 2907 2905 2902 2900 2897 2895 2893 2891 2889 2887 2884 2882 2881 2879 2877 2876 2874 2874 2873 2872 2870 2868 2867 2866 2865 2863 2862 2861 2859 2857 2856 2855 2854 2853 2852 2851 2850 2849 2848 2847 2846 2845 2843 2842 2841
2964 2962 2959 2957 2954 2952 2949 2947 2945 2942 2940 2937 2935 2932 2929 2927 2924 2921 2918 2916 2913 2910 2907 2905 2903 2901 2898 2896 2893 2891 2888 2887 2885 2883 2881 2879 2877 2876 2874 2873 2871 2871 2870 2869 2867 2866 2864 2863 2862 2861 2859 2858 2856 2855 2853 2852 2851 2850 2849 2848 2847 2846 2845 2844 2843 2842 2841 2839 2838
2960 2957 2955 2952 2950 2948 2945 2943 2941 2938 2936 2933 2931 2928 2925 2922 2920 2917 2915 2912 2909 2907 2904 2901 2899 2897 2894 2892 2889 2887 2885 2883 2882 2880 2878 2876 2875 2873 2872 2870 2869 2868 2867 2866 2865 2863 2862 2861 2859 2858 2857 2855 2853 2852 2851 2850 2848 2847 2847 2846 2845 2843 2842 2841 2840 2839 2838 2837 2835